[[{"header":{"parameterUnit":"m.s-1","parameterCategory":1,"la1":30.2991,"la2":30.254,"lo1":-89.0895,"lo2":-89.0444,"dx":0.0017,"dy":0.0017,"nx":28,"ny":28,"refTime":"2022-12-15T09:00:00:Z","depth":0,"parameterNumber":2,"parameterNumberName":"U-component_of_WINDS"},"data":[0,0,0,0,0,0,0,0,0,0,0,0,0,0,0,0,0,0,0,0,0,0,0,0,0,0,0,0,0,0,0,0,0,0,0,0,0,0,0,0,0,0,0,0,0,0,0,0,0,0,0,0,0,0,0,0,0,0,1.3797,1.3797,0,1.3808,1.3808,1.3808,1.3776,1.3775,1.3774,1.3773,1.3783,1.3784,1.3786,0,0,0,0,0,0,0,0,0,0,0,0,0,1.3749,1.3751,1.3797,1.3797,1.3798,1.3808,1.3808,1.3808,1.3776,1.3775,1.3774,1.3773,1.3783,1.3784,1.3786,0,0,0,0,0,0,0,0,0,0,0,0,0,1.3766,1.3751,1.3797,1.3783,1.3782,1.3808,1.3808,1.3808,1.3776,1.3775,1.3773,1.3772,1.3782,1.3784,1.3786,1.3827,0,0,1.3791,1.3792,0,0,0,0,0,0,0,0,1.3765,1.3768,1.3785,1.3784,1.3783,1.3789,1.3795,1.3814,1.3777,1.3778,1.3773,1.3771,1.3786,1.3788,1.3793,1.3827,1.3828,1.3792,1.3793,1.3793,1.3794,0,0,0,0,0,0,0,1.3764,1.3767,1.3801,1.3785,1.3784,1.3776,1.3777,1.3799,1.379,1.3778,1.3776,1.3777,1.3785,1.3791,1.3793,1.3828,1.3791,1.3793,1.3794,1.3795,1.3897,1.3899,0,0,0,0,0,0,1.3765,1.3767,1.3801,1.3802,1.377,1.3778,1.3779,1.3788,1.379,1.3789,1.3779,1.3776,1.3789,1.3791,1.3793,1.3841,1.3793,1.3795,1.3796,1.3896,1.3898,1.3899,0,0,0,0,0,0,1.3764,1.3768,1.3801,1.3784,1.3787,1.378,1.3792,1.3789,1.3795,1.3791,1.3789,1.3786,1.3788,1.3791,1.3819,1.3841,1.3796,1.3797,1.3894,1.3896,1.3898,1.3938,0,0,0,0,0,0,1.3763,1.3768,1.3783,1.3784,1.3788,1.3826,1.3793,1.3791,1.3799,1.3795,1.3797,1.3796,1.3787,1.3816,1.3821,1.3843,1.3799,1.3892,1.3895,1.3898,1.3935,1.3941,1.3947,0,0,0,0,0,1.3761,1.3793,1.3784,1.3788,1.3807,1.3827,1.383,1.3819,1.38,1.3816,1.3813,1.3796,1.3839,1.382,1.3824,1.3847,1.389,1.3894,1.3897,1.3932,1.394,1.3947,0,0,0,0,0,0,1.3794,1.3793,1.3783,1.3816,1.3822,1.3822,1.384,1.3828,1.3838,1.3835,1.382,1.3821,1.3852,1.3853,1.3832,1.3888,1.3861,1.3866,1.3886,1.3894,1.39,1.3899,1.38,0,0,0,0,0,1.3806,1.3823,1.3821,1.3851,1.3854,1.3847,1.3856,1.3847,1.3852,1.3854,1.3854,1.386,1.3874,1.3884,1.3897,1.3935,1.3935,1.3954,1.396,1.3965,1.3969,1.399,1.3998,1.3911,1.3911,1.3911,0,0,1.3829,1.3831,1.3842,1.3857,1.3861,1.3879,1.3849,1.3869,1.3882,1.3857,1.3884,1.3884,1.389,1.3923,1.3938,1.3924,1.3993,1.397,1.3974,1.3975,1.3994,1.4003,1.401,1.3914,1.3914,1.3913,0,0,1.388,1.3883,1.3909,1.3914,1.392,1.3915,1.3922,1.3924,1.3923,1.395,1.3932,1.3948,1.3973,1.3978,1.3984,1.404,1.4025,1.4045,1.4078,1.4098,1.4105,1.4111,1.4131,1.4139,1.4049,1.405,1.405,0,1.3908,1.3935,1.3924,1.3945,1.3953,1.3932,1.3958,1.3963,1.3974,1.3979,1.3965,1.3997,1.4,1.4034,1.4048,1.4054,1.4061,1.4044,1.4105,1.4111,1.4116,1.4135,1.4143,1.4052,1.4052,1.4051,1.4051,0,1.3969,1.3988,1.4008,1.4019,1.4029,1.4053,1.4046,1.4057,1.4048,1.4046,1.4074,1.4077,1.409,1.4098,1.4089,1.4132,1.4124,1.4108,1.4081,1.4127,1.4145,1.4152,1.4055,1.4054,1.4054,1.4053,0,0,1.4039,1.4046,1.4053,1.4059,1.4065,1.4079,1.4103,1.4117,1.4128,1.4136,1.4155,1.4179,1.4164,1.4171,1.4163,1.4181,1.4226,1.4162,1.4162,1.4174,1.4273,1.4285,1.4294,1.4217,1.4218,1.4219,1.4273,0,1.409,1.413,1.4122,1.4161,1.4179,1.4161,1.4181,1.4188,1.4187,1.4202,1.42,1.4217,1.4196,1.4201,1.4218,1.4217,1.4245,1.4213,1.4234,1.4235,1.4232,1.4303,1.4315,1.4365,1.428,1.4281,1.4282,0,1.4153,1.4165,1.4207,1.4212,1.4219,1.4237,1.4251,1.4265,1.4273,1.4271,1.428,1.4269,1.4292,1.4267,1.43,1.4278,1.4286,1.4287,1.4289,1.4289,1.426,1.4305,1.4381,1.4389,1.4292,1.4292,1.4291,0,1.42,1.4227,1.4255,1.426,1.4267,1.4281,1.4284,1.429,1.43,1.4312,1.4318,1.4332,1.434,1.4352,1.4345,1.4327,1.4379,1.4353,1.4378,1.4378,1.4389,1.4388,1.4467,1.4396,1.4396,1.4396,1.4396,0,1.4257,1.4283,1.4277,1.4294,1.4323,1.4314,1.4343,1.4344,1.4351,1.4368,1.4354,1.4371,1.4362,1.4378,1.4373,1.4401,1.4405,1.4404,1.4402,1.4405,1.4405,1.4409,1.4405,1.4398,1.4397,1.4397,1.4397,0,1.4313,1.431,1.434,1.4345,1.4347,1.4368,1.4372,1.4389,1.4387,1.441,1.4415,1.4412,1.4431,1.4426,1.4446,1.4443,1.4479,1.4473,1.4476,1.4474,1.45,1.4497,1.4584,1.4594,1.4517,1.4518,1.4519,0,1.4349,1.4369,1.4377,1.4388,1.4392,1.441,1.4421,1.4413,1.4425,1.4436,1.4451,1.4469,1.4482,1.4513,1.4513,1.4529,1.4523,1.4552,1.4525,1.4527,1.4523,1.4521,1.4523,1.4557,1.4558,1.4559,1.4559,0,1.4413,1.4411,1.4426,1.4442,1.4455,1.4466,1.4477,1.4487,1.448,1.4494,1.4513,1.4524,1.4546,1.4563,1.4578,1.4582,1.457,1.4568,1.4575,1.4577,1.4578,1.4578,1.449,1.4566,1.4565,1.4565,1.4564,1.4564,1.446,1.4477,1.4485,1.4503,1.4511,1.4521,1.4537,1.4539,1.4555,1.4572,1.4567,1.4589,1.4598,1.4617,1.4623,1.464,1.4629,1.4638,1.4641,1.4643,1.4646,1.4577,1.4643,1.4643,1.4642,1.4642,1.4642,0,1.4523,1.4528,1.4545,1.456,1.4575,1.4564,1.4575,1.4588,1.4607,1.4617,1.4631,1.4654,1.4672,1.4674,1.4691,1.4705,1.4699,1.4709,1.4707,1.4709,1.4655,1.4647,1.4713,1.4713,1.4713,1.4713,1.4713,1.4713,1.4557,1.4586,1.4585,1.4618,1.4622,1.4644,1.4652,1.4662,1.4669,1.4696,1.4711,1.4713,1.4719,1.4737,1.4753,1.4753,1.476,1.4771,1.477,1.4719,1.4712,1.4705,1.4698,1.4773,1.4773,1.4822,1.4822,1.4822]},{"header":{"parameterUnit":"m.s-1","parameterCategory":1,"la1":30.2991,"la2":30.254,"lo1":-89.0895,"lo2":-89.0444,"dx":0.0017,"dy":0.0017,"nx":28,"ny":28,"refTime":"2022-12-15T09:00:00:Z","depth":0,"parameterNumber":3,"parameterNumberName":"V-component_of_WINDS"},"data":[0,0,0,0,0,0,0,0,0,0,0,0,0,0,0,0,0,0,0,0,0,0,0,0,0,0,0,0,0,0,0,0,0,0,0,0,0,0,0,0,0,0,0,0,0,0,0,0,0,0,0,0,0,0,0,0,0,0,-3.7779,-3.7781,0,-3.7939,-3.7941,-3.7943,-3.7908,-3.7905,-3.7902,-3.7899,-3.8061,-3.8068,-3.8075,0,0,0,0,0,0,0,0,0,0,0,0,0,-3.7441,-3.7448,-3.7779,-3.7781,-3.7783,-3.7939,-3.7941,-3.7943,-3.7908,-3.7905,-3.7901,-3.7898,-3.8059,-3.8067,-3.8076,0,0,0,0,0,0,0,0,0,0,0,0,0,-3.7593,-3.745,-3.7778,-3.7784,-3.7786,-3.7938,-3.7941,-3.7944,-3.7909,-3.7905,-3.79,-3.7896,-3.8056,-3.8067,-3.8077,-3.8232,0,0,-3.811,-3.8114,0,0,0,0,0,0,0,0,-3.7585,-3.7606,-3.7781,-3.7784,-3.7787,-3.7899,-3.7881,-3.804,-3.791,-3.7863,-3.7899,-3.7894,-3.8011,-3.8025,-3.8065,-3.824,-3.8247,-3.8111,-3.8117,-3.8122,-3.8125,0,0,0,0,0,0,0,-3.7574,-3.7599,-3.7842,-3.7784,-3.7787,-3.7778,-3.7795,-3.7911,-3.796,-3.7866,-3.7864,-3.7884,-3.8011,-3.8055,-3.8068,-3.8249,-3.811,-3.812,-3.8126,-3.8131,-3.856,-3.8565,0,0,0,0,0,0,-3.7562,-3.759,-3.7837,-3.7847,-3.7673,-3.7788,-3.7807,-3.7867,-3.7958,-3.7968,-3.7887,-3.7882,-3.8039,-3.8056,-3.8074,-3.8262,-3.8122,-3.8132,-3.8138,-3.8555,-3.8561,-3.8566,0,0,0,0,0,0,-3.7554,-3.7584,-3.783,-3.7718,-3.7749,-3.7799,-3.7867,-3.7873,-3.7916,-3.7974,-3.7983,-3.7923,-3.8036,-3.8059,-3.8193,-3.8267,-3.8136,-3.8146,-3.8549,-3.8557,-3.8564,-3.8639,0,0,0,0,0,0,-3.7545,-3.7582,-3.7642,-3.772,-3.7755,-3.7948,-3.7872,-3.7879,-3.7935,-3.7929,-3.801,-3.8019,-3.8034,-3.8178,-3.8204,-3.8279,-3.8154,-3.8543,-3.8552,-3.8561,-3.863,-3.8648,-3.8663,0,0,0,0,0,-3.7533,-3.7656,-3.7645,-3.7675,-3.7831,-3.7952,-3.7972,-3.7988,-3.7941,-3.8001,-3.8039,-3.8016,-3.8255,-3.8192,-3.8221,-3.8301,-3.8538,-3.855,-3.8561,-3.8622,-3.8644,-3.8663,0,0,0,0,0,0,-3.7585,-3.7666,-3.7655,-3.7807,-3.7873,-3.7946,-3.8023,-3.8011,-3.8091,-3.8082,-3.8097,-3.8116,-3.8253,-3.829,-3.8219,-3.8456,-3.8389,-3.8407,-3.8426,-3.8448,-3.8464,-3.8452,-3.8163,0,0,0,0,0,-3.7614,-3.7706,-3.7772,-3.79,-3.7934,-3.7973,-3.8026,-3.8033,-3.8102,-3.8129,-3.8176,-3.8244,-3.8334,-3.8393,-3.8479,-3.8635,-3.8652,-3.8704,-3.8721,-3.8734,-3.8749,-3.8834,-3.8858,-3.8603,-3.8603,-3.8603,0,0,-3.7675,-3.7731,-3.7788,-3.7912,-3.7964,-3.8059,-3.7997,-3.81,-3.817,-3.8145,-3.8275,-3.8312,-3.8388,-3.8534,-3.8601,-3.8569,-3.8823,-3.8748,-3.8759,-3.8767,-3.8849,-3.8873,-3.8894,-3.8611,-3.861,-3.8608,0,0,-3.7834,-3.7886,-3.7998,-3.8052,-3.8132,-3.8157,-3.8184,-3.8259,-3.8283,-3.8414,-3.8397,-3.8481,-3.8635,-3.869,-3.8739,-3.8919,-3.8902,-3.8947,-3.9034,-3.9117,-3.9137,-3.9155,-3.9219,-3.9242,-3.8961,-3.8962,-3.8962,0,-3.79,-3.8043,-3.8057,-3.8162,-3.8217,-3.8199,-3.8312,-3.8363,-3.8467,-3.8505,-3.8468,-3.8662,-3.8712,-3.8871,-3.8915,-3.8955,-3.8986,-3.8938,-3.9133,-3.9151,-3.9168,-3.923,-3.9254,-3.8967,-3.8966,-3.8966,-3.8965,0,-3.812,-3.8219,-3.83,-3.8401,-3.8465,-3.8573,-3.8604,-3.8667,-3.8667,-3.8696,-3.8829,-3.8889,-3.8986,-3.9024,-3.9026,-3.9184,-3.9162,-3.9129,-3.9063,-3.9197,-3.9255,-3.9279,-3.8974,-3.8972,-3.8971,-3.8969,0,0,-3.8317,-3.8424,-3.8454,-3.85,-3.8586,-3.8663,-3.8771,-3.8867,-3.892,-3.8992,-3.9083,-3.9214,-3.9185,-3.9239,-3.9247,-3.9319,-3.9459,-3.9278,-3.928,-3.9309,-3.9636,-3.966,-3.9688,-3.9447,-3.9452,-3.9456,-3.963,0,-3.8484,-3.8675,-3.8691,-3.8862,-3.8954,-3.8938,-3.9031,-3.9094,-3.9124,-3.9206,-3.9238,-3.9331,-3.9285,-3.9318,-3.9389,-3.9427,-3.9525,-3.9414,-3.9531,-3.9535,-3.9513,-3.9718,-3.9744,-3.9906,-3.9653,-3.9657,-3.9659,0,-3.8706,-3.8785,-3.8965,-3.9039,-3.9078,-3.9162,-3.9252,-3.933,-3.9401,-3.9417,-3.9479,-3.9476,-3.9586,-3.9516,-3.9668,-3.9592,-3.9641,-3.9667,-3.9673,-3.9685,-3.9606,-3.9735,-3.9958,-3.9982,-3.9695,-3.9692,-3.969,0,-3.8831,-3.8983,-3.9111,-3.915,-3.9239,-3.9299,-3.9339,-3.9405,-3.9462,-3.954,-3.9577,-3.9666,-3.9715,-3.9785,-3.9806,-3.9753,-3.9957,-3.9889,-3.9974,-3.9973,-4.0018,-4.0015,-4.0251,-4.0049,-4.0048,-4.0048,-4.0047,0,-3.9017,-3.9128,-3.9168,-3.9247,-3.9371,-3.9388,-3.9509,-3.9546,-3.9605,-3.969,-3.9681,-3.9761,-3.9785,-3.9868,-3.9886,-4.0009,-4.0031,-4.0047,-4.005,-4.0048,-4.0046,-4.008,-4.007,-4.0054,-4.0053,-4.0052,-4.0051,0,-3.9179,-3.921,-3.9348,-3.9422,-3.9442,-3.9531,-3.9593,-3.9668,-3.9696,-3.9804,-3.983,-3.9875,-3.9973,-4.0001,-4.0119,-4.013,-4.0275,-4.0268,-4.0251,-4.0251,-4.0335,-4.0327,-4.0602,-4.0639,-4.0412,-4.0414,-4.0416,0,-3.9295,-3.9381,-3.9463,-3.952,-3.9562,-3.9653,-3.9711,-3.9731,-3.9792,-3.9879,-3.9944,-4.0041,-4.012,-4.0277,-4.032,-4.041,-4.0405,-4.0495,-4.0418,-4.0413,-4.0406,-4.0401,-4.041,-4.0509,-4.0512,-4.0514,-4.0515,0,-3.9499,-3.9511,-3.9595,-3.9685,-3.9755,-3.9827,-3.9895,-3.9942,-3.9972,-4.004,-4.0141,-4.0202,-4.0322,-4.0419,-4.051,-4.055,-4.0538,-4.0539,-4.0564,-4.0562,-4.0549,-4.0558,-4.0291,-4.0533,-4.0531,-4.053,-4.0529,-4.0528,-3.9642,-3.9717,-3.9787,-3.9882,-3.9935,-4.0,-4.0075,-4.0112,-4.0197,-4.0297,-4.0303,-4.0412,-4.048,-4.0602,-4.0647,-4.0732,-4.0705,-4.0741,-4.075,-4.0758,-4.0765,-4.0536,-4.0748,-4.0748,-4.0748,-4.0747,-4.0747,0,-3.9846,-3.989,-3.9977,-4.0074,-4.0148,-4.013,-4.0205,-4.0268,-4.0365,-4.043,-4.0507,-4.0623,-4.0716,-4.0766,-4.0859,-4.0918,-4.0914,-4.0941,-4.0937,-4.0947,-4.0784,-4.0754,-4.0942,-4.0942,-4.0942,-4.0942,-4.0942,-4.0942,-3.9961,-4.0087,-4.0106,-4.0259,-4.0302,-4.0409,-4.0454,-4.0513,-4.0565,-4.0695,-4.0773,-4.0804,-4.0863,-4.096,-4.1045,-4.1057,-4.1092,-4.1122,-4.1131,-4.0978,-4.0958,-4.0939,-4.0911,-4.113,-4.113,-4.1287,-4.1289,-4.129]}]]